This is the latest recevied weather packets stored in our database for station/object WX6HNX-2. If no packets are shown the sender has not sent any weather packets the latest 10 day(s).
| Time | Temp. | Humidity | Pressure | Rain* | Wind** | Luminosity | Snow |
|---|---|---|---|---|---|---|---|
| 1778210986 | 19.44° C | 75% | 1016 hPa | 0 mm | - | - | - |
| 1778210506 | 20° C | 73% | 1015.9 hPa | 0 mm | - | - | - |
| 1778210266 | 20° C | 72% | 1015.9 hPa | 0 mm | - | - | - |
| 1778210026 | 20.56° C | 71% | 1015.9 hPa | 0 mm | - | - | - |
| 1778209786 | 21.11° C | 70% | 1015.7 hPa | 0 mm | - | - | - |
| 1778209306 | 21.67° C | 67% | 1015.8 hPa | 0 mm | - | - | - |
| 1778209066 | 21.67° C | 66% | 1015.7 hPa | 0 mm | - | - | - |
| 1778208826 | 22.22° C | 64% | 1015.6 hPa | 0 mm | - | - | - |
| 1778208586 | 22.22° C | 63% | 1015.7 hPa | 0 mm | - | - | - |
| 1778207866 | 23.33° C | 61% | 1015.6 hPa | 0 mm | - | - | - |
| 1778207626 | 23.33° C | 61% | 1015.6 hPa | 0 mm | - | - | - |
| 1778207386 | 23.33° C | 59% | 1015.6 hPa | 0 mm | - | - | - |
| 1778207146 | 23.89° C | 59% | 1015.6 hPa | 0 mm | - | - | - |
| 1778206906 | 23.89° C | 57% | 1015.5 hPa | 0 mm | - | - | - |
| 1778206572 | 24.44° C | 55% | 1015.5 hPa | 0 mm | - | - | - |
| 1778206332 | 24.44° C | 55% | 1015.4 hPa | 0 mm | - | - | - |
| 1778206092 | 24.44° C | 55% | 1015.5 hPa | 0 mm | - | - | - |
| 1778205852 | 25° C | 55% | 1015.5 hPa | 0 mm | - | - | - |
| 1778205611 | 25° C | 54% | 1015.4 hPa | 0 mm | - | - | - |
| 1778205372 | 25° C | 53% | 1015.4 hPa | 0 mm | - | - | - |
| 1778204892 | 25.56° C | 55% | 1015.4 hPa | 0 mm | - | - | - |
| 1778204652 | 25.56° C | 53% | 1015.4 hPa | 0 mm | - | - | - |
| 1778204411 | 25.56° C | 54% | 1015.3 hPa | 0 mm | - | - | - |
| 1778204033 | 26.11° C | 52% | 1015.4 hPa | 0 mm | - | - | - |
| 1778203793 | 26.11° C | 52% | 1015.4 hPa | 0 mm | - | - | - |
* Rain latest hour (hover to see other rain measurements)
** Current wind speed in m/s (hover to see current wind gust speed)